Location: Shepherdstown, WV
(39.4326°N, 77.8042°W)
Time: 15:33:20
(UTC-04:00)

S-56A Canister/Altair - Pass Details

Date: 28 July 2021
Orbit: 632 x 2500 km, 38.9° (Epoch: 15 September)

Event Time Altitude Azimuth Distance (km) Brightness Sun altitude
Rises 21:16:34 0° 282° (WNW) 6,181 13.6 -9.1°
Reaches altitude 10° 21:20:42 10° 281° (WNW) 5,143 12.9 -9.8°
Maximum altitude 21:35:27 73° 201° (SSW) 2,210 9.7 -12.1°
Enters shadow 21:44:54 16° 120° (ESE) 3,538 10.2 -13.5°
